Tracking 30313 objects as of 21-Apr-2025
HD Live streaming from Space Station
objects crossing your sky now

STARLINK-32223

Track STARLINK-32223 now!
10-day predictions
STARLINK-32223 is classified as:


NORAD ID: 60373
Int'l Code: 2024-138U
Perigee: 481.5 km
Apogee: 483.3 km
Inclination: 53.2 °
Period: 94.1 minutes
Semi major axis: 6853 km
RCS: Unknown
Launch date: August 4, 2024
Source: United States (US)
Launch site: AIR FORCE WESTERN TEST RANGE (AFWTR)
Your satellite tracking list
Your tracking list is empty




NASA's NSSDC Master Catalog

Two Line Element Set (TLE):
1 60373U 24138U   25110.75468246  .00000504  00000-0  29137-4 0  9993
2 60373  53.1595   9.6887 0001353  83.3942 276.7213 15.30190102 41081
Source of the keplerian elements: AFSPC